Lincoln, NE

8:58 AM CDT on July 27, 2017 (GMT -0500)
Lincoln Municipal

Weather History for KLNK - November, 2012

Change the Weather History Date:

Monday, November 5, 2012

  Actual Average Record
Temperature  
Mean Temperature 41 °F 45 °F  
Max Temperature 45 °F 56 °F 81 °F (1945)
Min Temperature 36 °F 33 °F 15 °F (1959)
Degree Days  
Heating Degree Days 24 20  
Month to date heating degree days 102 97  
Since 1 July heating degree days 684 576  
Cooling Degree Days 0 0  
Month to date cooling degree days 0 0  
Year to date cooling degree days 1491 1173  
Moisture  
Dew Point 37 °F    
Average Humidity 84    
Maximum Humidity 92    
Minimum Humidity 76    
Precipitation  
Precipitation T in 0.05 in 1.20 in (2013)
Month to date precipitation 0.08 0.28  
Year to date precipitation 17.57 26.85  
Snow  
Snow 0.00 in 0.00 in - ()
Month to date snowfall 0.0 0.2  
Since 1 July snowfall 0.0 0.9  
Snow Depth 0.00 in    
Sea Level Pressure  
Sea Level Pressure 30.14 in    
Wind  
Wind Speed 12 mph (NNW)    
Max Wind Speed 26 mph    
Max Gust Speed 31 mph    
Visibility 7 miles    
Events      
T = Trace of Precipitation, MM = Missing Value Source: NWS Daily Summary

Daily Weather History Graph

Daily Weather History Graph

Search for Another Location

Airport or City:

Trip Planner

Search our weather history database for the weather conditions in past years. The results will help you decide how hot, cold, wet, or windy it might be!

Date:

Astronomy

Nov. 05, 2012 Rise Set
Actual Time 7:02 AM CST 5:17 PM CST
Civil Twilight 6:34 AM CST 5:46 PM CST
Nautical Twilight 6:01 AM CST 6:19 PM CST
Astronomical Twilight 5:29 AM CST 6:51 PM CST
Moon 10:56 PM CST (11/5) 12:23 PM CST (11/5)
Length of Visible Light 11h 12m
Length of Day
10h 14m
Waning Gibbous, 62% of the Moon is Illuminated
Nov 5
Waning Gibbous
Nov 6
Last Quarter
Nov 13
New
Nov 20
First Quarter
Nov 28
Full

Hourly Weather History & Observations

Time (CST) Temp. Windchill Dew Point Humidity Pressure Visibility Wind Dir Wind Speed Gust Speed Precip Events Conditions
12:20 AM 44.6 °F 39.2 °F 42.8 °F 93% 30.06 in 5.0 mi NW 10.4 mph - 0.00 in   Overcast
12:54 AM 45.0 °F 39.3 °F 42.1 °F 90% 30.06 in 8.0 mi NNW 11.5 mph - 0.00 in   Overcast
1:54 AM 44.1 °F 37.4 °F 41.0 °F 89% 30.08 in 9.0 mi NW 13.8 mph - N/A   Overcast
2:54 AM 43.0 °F 35.7 °F 39.9 °F 89% 30.09 in 8.0 mi NNW 15.0 mph - N/A   Overcast
3:39 AM 42.8 °F 34.3 °F 39.2 °F 87% 30.08 in 7.0 mi NNW 19.6 mph - N/A   Overcast
3:54 AM 42.1 °F 34.2 °F 39.0 °F 89% 30.09 in 7.0 mi NNW 16.1 mph - N/A   Overcast
4:54 AM 42.1 °F 33.1 °F 37.9 °F 85% 30.10 in 8.0 mi NNW 20.7 mph - N/A   Overcast
5:19 AM 42.8 °F 34.0 °F 37.4 °F 81% 30.10 in 8.0 mi North 20.7 mph 31.1 mph N/A   Overcast
5:54 AM 41.0 °F 31.9 °F 37.0 °F 86% 30.12 in 8.0 mi NNW 19.6 mph 25.3 mph N/A   Overcast
6:54 AM 39.9 °F 31.1 °F 36.0 °F 86% 30.13 in 8.0 mi NNW 17.3 mph 26.5 mph N/A   Overcast
7:54 AM 39.9 °F 29.5 °F 35.1 °F 83% 30.15 in 7.0 mi NNW 24.2 mph - N/A   Overcast
8:54 AM 39.9 °F 30.0 °F 36.0 °F 86% 30.17 in 6.0 mi NNW 21.9 mph 28.8 mph N/A   Overcast
9:54 AM 39.9 °F 30.8 °F 36.0 °F 86% 30.19 in 6.0 mi NNW 18.4 mph - N/A   Overcast
10:54 AM 39.9 °F 31.1 °F 36.0 °F 86% 30.20 in 6.0 mi North 17.3 mph - N/A   Overcast
11:54 AM 41.0 °F 31.9 °F 36.0 °F 82% 30.19 in 5.0 mi NNW 19.6 mph - N/A   Haze
12:46 PM 42.8 °F 34.8 °F 35.6 °F 76% 30.17 in 6.0 mi NNW 17.3 mph - N/A   Haze
12:54 PM 43.0 °F 36.4 °F 37.0 °F 80% 30.19 in 6.0 mi North 12.7 mph - N/A   Haze
1:54 PM 44.1 °F 38.1 °F 37.0 °F 76% 30.17 in 6.0 mi North 11.5 mph - N/A   Haze
2:54 PM 42.1 °F 36.1 °F 35.1 °F 76% 30.16 in 7.0 mi North 10.4 mph - N/A   Overcast
3:54 PM 42.8 °F 37.0 °F 35.6 °F 76% 30.16 in 6.0 mi NNW 10.4 mph - N/A   Haze
4:54 PM 41.0 °F 36.4 °F 35.1 °F 79% 30.17 in 5.0 mi North 6.9 mph - N/A   Haze
5:14 PM 41.0 °F 37.1 °F 35.6 °F 81% 30.14 in 5.0 mi North 5.8 mph - N/A   Haze
5:22 PM 39.2 °F 35.9 °F 35.6 °F 87% 30.14 in 6.0 mi North 4.6 mph - N/A   Haze
5:54 PM 41.0 °F 38.0 °F 35.1 °F 79% 30.16 in 7.0 mi NE 4.6 mph - N/A   Overcast
6:54 PM 41.0 °F - 35.1 °F 79% 30.18 in 8.0 mi Calm Calm - N/A   Overcast
7:54 PM 41.0 °F - 35.1 °F 79% 30.16 in 8.0 mi Calm Calm - N/A   Overcast
8:54 PM 41.0 °F 39.0 °F 35.1 °F 79% 30.15 in 8.0 mi SW 3.5 mph - N/A   Overcast
9:54 PM 41.0 °F 38.0 °F 35.1 °F 79% 30.14 in 7.0 mi SW 4.6 mph - N/A   Overcast
10:42 PM 39.2 °F 35.0 °F 35.6 °F 87% 30.09 in 7.0 mi South 5.8 mph - N/A   Overcast
10:54 PM 39.9 °F 35.8 °F 36.0 °F 86% 30.10 in 6.0 mi South 5.8 mph - N/A   Overcast
11:54 PM 37.9 °F 32.7 °F 35.1 °F 89% 30.09 in 6.0 mi South 6.9 mph - N/A   Mostly Cloudy